This is the latest recevied weather packets stored in our database for station/object KB9HUO. If no packets are shown the sender has not sent any weather packets the latest 10 day(s).
| Time | Temp. | Humidity | Pressure | Rain* | Wind** | Luminosity | Snow |
|---|---|---|---|---|---|---|---|
| 1777941101 | 22.22° C | 48% | 1005.6 hPa | 0 mm | - | 3 W/m² | - |
| 1777940797 | 22.78° C | 48% | 1005.5 hPa | 0 mm | - | 6 W/m² | - |
| 1777940496 | 22.78° C | 49% | 1005.5 hPa | 0 mm | - | 9 W/m² | - |
| 1777940193 | 22.78° C | 48% | 1005.6 hPa | 0 mm | - | 11 W/m² | - |
| 1777939890 | 22.78° C | 47% | 1005.7 hPa | 0 mm | - | 12 W/m² | - |
| 1777939587 | 22.78° C | 47% | 1005.5 hPa | 0 mm | - | 14 W/m² | - |
| 1777939285 | 22.78° C | 47% | 1005.7 hPa | 0 mm | - | 17 W/m² | - |
| 1777938981 | 23.33° C | 47% | 1005.8 hPa | 0 mm | - | 25 W/m² | - |
| 1777938677 | 23.33° C | 46% | 1005.6 hPa | 0 mm | - | 30 W/m² | - |
| 1777938375 | 23.33° C | 47% | 1005.9 hPa | 0 mm | - | 31 W/m² | - |
| 1777938072 | 23.33° C | 47% | 1005.8 hPa | 0 mm | - | 33 W/m² | - |
| 1777937767 | 23.33° C | 48% | 1006 hPa | 0 mm | - | 28 W/m² | - |
| 1777937464 | 23.33° C | 48% | 1006.1 hPa | 0 mm | - | 26 W/m² | - |
| 1777937161 | 23.33° C | 47% | 1005.9 hPa | 0 mm | - | 25 W/m² | - |
| 1777936859 | 23.33° C | 47% | 1005.9 hPa | 0 mm | - | 27 W/m² | - |
| 1777936555 | 23.89° C | 47% | 1006.4 hPa | 0 mm | - | 31 W/m² | - |
| 1777936251 | 23.89° C | 47% | 1006.4 hPa | 0 mm | - | 39 W/m² | - |
| 1777935947 | 23.89° C | 47% | 1006.4 hPa | 0 mm | - | 40 W/m² | - |
| 1777935646 | 23.89° C | 47% | 1006.4 hPa | 0 mm | - | 39 W/m² | - |
| 1777935343 | 23.89° C | 46% | 1006.5 hPa | 0 mm | - | 40 W/m² | - |
| 1777935040 | 23.89° C | 45% | 1006.5 hPa | 0 mm | - | 53 W/m² | - |
| 1777934737 | 24.44° C | 46% | 1006.6 hPa | 0 mm | - | 66 W/m² | - |
| 1777934434 | 24.44° C | 46% | 1006.7 hPa | 0 mm | - | 87 W/m² | - |
| 1777934131 | 24.44° C | 45% | 1006.9 hPa | 0 mm | - | 94 W/m² | - |
| 1777933826 | 23.89° C | 46% | 1006.7 hPa | 0 mm | - | 79 W/m² | - |
* Rain latest hour (hover to see other rain measurements)
** Current wind speed in m/s (hover to see current wind gust speed)